This is the latest recevied weather packets stored in our database for station/object W9QL-13. If no packets are shown the sender has not sent any weather packets the latest 1 day(s).
| Time | Temp. | Humidity | Pressure | Rain* | Wind** | Luminosity | Snow |
|---|---|---|---|---|---|---|---|
| 1778018134 | 13.33° C | 35% | 1007.5 hPa | 0 mm | 0.89 m/s, 315° | - | - |
| 1778017832 | 13.89° C | 35% | 1007.4 hPa | 0 mm | 2.24 m/s, 348° | - | - |
| 1778017532 | 13.89° C | 34% | 1007.3 hPa | 0 mm | 2.24 m/s, 1° | - | - |
| 1778017232 | 13.89° C | 35% | 1007.3 hPa | 0 mm | 0.89 m/s, 320° | - | - |
| 1778016932 | 13.89° C | 34% | 1007.4 hPa | 0 mm | 2.24 m/s, 354° | - | - |
| 1778016604 | 13.89° C | 35% | 1007.3 hPa | 0 mm | 1.34 m/s, 308° | - | - |
| 1778016302 | 13.89° C | 34% | 1007.3 hPa | 0 mm | 0.89 m/s, 303° | - | - |
| 1778015972 | 13.89° C | 35% | 1007.3 hPa | 0 mm | 0.45 m/s, 306° | - | - |
| 1778015672 | 13.89° C | 32% | 1007.4 hPa | 0 mm | 1.34 m/s, 337° | - | - |
| 1778015372 | 13.89° C | 32% | 1007.5 hPa | 0 mm | 2.68 m/s, 344° | - | - |
| 1778015072 | 13.89° C | 32% | 1007.4 hPa | 0 mm | 0.89 m/s, 305° | - | - |
| 1778014745 | 13.89° C | 33% | 1007.4 hPa | 0 mm | 1.34 m/s, 309° | - | - |
| 1778014442 | 13.89° C | 32% | 1007.3 hPa | 0 mm | 0.89 m/s, 334° | - | - |
| 1778014142 | 13.89° C | 34% | 1007.3 hPa | 0 mm | 0.89 m/s, 301° | - | - |
| 1778013842 | 13.89° C | 34% | 1007.4 hPa | 0 mm | 2.24 m/s, 349° | - | - |
| 1778013512 | 13.89° C | 32% | 1007.5 hPa | 0 mm | 2.24 m/s, 340° | - | - |
| 1778013212 | 13.89° C | 31% | 1007.6 hPa | 0 mm | 2.24 m/s, 332° | - | - |
| 1778012882 | 13.89° C | 33% | 1007.6 hPa | 0 mm | 0.89 m/s, 335° | - | - |
| 1778012552 | 13.89° C | 32% | 1007.6 hPa | 0 mm | 2.24 m/s, 324° | - | - |
| 1778012222 | 13.89° C | 32% | 1007.5 hPa | 0 mm | 2.24 m/s, 336° | - | - |
| 1778011892 | 13.89° C | 30% | 1007.6 hPa | 0 mm | 0.89 m/s, 331° | - | - |
| 1778011592 | 14.44° C | 30% | 1007.6 hPa | 0 mm | 2.24 m/s, 358° | - | - |
| 1778011261 | 14.44° C | 29% | 1007.6 hPa | 0 mm | 3.13 m/s, 355° | - | - |
| 1778010931 | 14.44° C | 30% | 1007.7 hPa | 0 mm | 2.68 m/s, 344° | - | - |
| 1778010631 | 14.44° C | 30% | 1007.7 hPa | 0 mm | 1.34 m/s, 355° | - | - |
* Rain latest hour (hover to see other rain measurements)
** Current wind speed in m/s (hover to see current wind gust speed)